Year,Month,Day,Hour,Minute,Value (Times are PST for temperature in C)
2013,05,04,00,00,8.60
2013,05,04,00,01,8.60
2013,05,04,00,02,8.60
2013,05,04,00,03,8.60
2013,05,04,00,04,8.50
2013,05,04,00,05,8.50
2013,05,04,00,06,8.50
2013,05,04,00,07,8.50
2013,05,04,00,08,8.50
2013,05,04,00,09,8.60
2013,05,04,00,10,8.60
2013,05,04,00,11,8.60
2013,05,04,00,12,8.60
2013,05,04,00,13,8.60
2013,05,04,00,14,8.60
2013,05,04,00,15,8.70
2013,05,04,00,16,8.70
2013,05,04,00,17,8.70
2013,05,04,00,18,8.70
2013,05,04,00,19,8.70
2013,05,04,00,20,8.70
2013,05,04,00,21,8.70
2013,05,04,00,22,8.70
2013,05,04,00,23,8.70
2013,05,04,00,24,8.70
2013,05,04,00,25,8.70
2013,05,04,00,26,8.70
2013,05,04,00,27,8.70
2013,05,04,00,28,8.70
2013,05,04,00,29,8.70
2013,05,04,00,30,8.70
2013,05,04,00,31,8.70
2013,05,04,00,32,8.70
2013,05,04,00,33,8.70
2013,05,04,00,34,8.70
2013,05,04,00,35,8.70
2013,05,04,00,36,8.70
2013,05,04,00,37,8.70
2013,05,04,00,38,8.70
2013,05,04,00,39,8.70
2013,05,04,00,40,8.70
2013,05,04,00,41,8.70
2013,05,04,00,42,8.70
2013,05,04,00,43,8.70
2013,05,04,00,44,8.70
2013,05,04,00,45,8.70
2013,05,04,00,46,8.70
2013,05,04,00,47,8.70
2013,05,04,00,48,8.70
2013,05,04,00,49,8.70
2013,05,04,00,50,8.80
2013,05,04,00,51,8.80
2013,05,04,00,52,8.80
2013,05,04,00,53,8.80
2013,05,04,00,54,8.80
2013,05,04,00,55,8.80
2013,05,04,00,56,8.80
2013,05,04,00,57,8.80
2013,05,04,00,58,8.70
2013,05,04,00,59,8.70
2013,05,04,01,00,8.70
2013,05,04,01,01,8.70
2013,05,04,01,02,8.70
2013,05,04,01,03,8.70
2013,05,04,01,04,8.70
2013,05,04,01,05,8.70
2013,05,04,01,06,8.70
2013,05,04,01,07,8.70
2013,05,04,01,08,8.70
2013,05,04,01,09,8.70
2013,05,04,01,10,8.70
2013,05,04,01,11,8.70
2013,05,04,01,12,8.70
2013,05,04,01,13,8.70
2013,05,04,01,14,8.70
2013,05,04,01,15,8.70
2013,05,04,01,16,8.80
2013,05,04,01,17,8.80
2013,05,04,01,18,8.80
2013,05,04,01,19,8.80
2013,05,04,01,20,8.80
2013,05,04,01,21,8.80
2013,05,04,01,22,8.80
2013,05,04,01,23,8.80
2013,05,04,01,24,8.80
2013,05,04,01,25,8.80
2013,05,04,01,26,8.80
2013,05,04,01,27,8.80
2013,05,04,01,28,8.80
2013,05,04,01,29,8.80
2013,05,04,01,30,8.80
2013,05,04,01,31,8.80
2013,05,04,01,32,8.70
2013,05,04,01,33,8.70
2013,05,04,01,34,8.70
2013,05,04,01,35,8.70
2013,05,04,01,36,8.80
2013,05,04,01,37,8.80
2013,05,04,01,38,8.80
2013,05,04,01,39,8.80
2013,05,04,01,40,8.90
2013,05,04,01,41,8.90
2013,05,04,01,42,8.90
2013,05,04,01,43,8.80
2013,05,04,01,44,8.80
2013,05,04,01,45,8.80
2013,05,04,01,46,8.90
2013,05,04,01,47,8.90
2013,05,04,01,48,8.90
2013,05,04,01,49,8.90
2013,05,04,01,50,9.00
2013,05,04,01,51,9.10
2013,05,04,01,52,9.20
2013,05,04,01,53,9.20
2013,05,04,01,54,9.30
2013,05,04,01,55,9.30
2013,05,04,01,56,9.30
2013,05,04,01,57,9.30
2013,05,04,01,58,9.30
2013,05,04,01,59,9.30
2013,05,04,02,00,9.40
2013,05,04,02,01,9.40
2013,05,04,02,02,9.40
2013,05,04,02,03,9.50
2013,05,04,02,04,9.50
2013,05,04,02,05,9.50
2013,05,04,02,06,9.50
2013,05,04,02,07,9.50
2013,05,04,02,08,9.40
2013,05,04,02,09,9.40
2013,05,04,02,10,9.40
2013,05,04,02,11,9.40
2013,05,04,02,12,9.50
2013,05,04,02,13,9.50
2013,05,04,02,14,9.50
2013,05,04,02,15,9.50
2013,05,04,02,16,9.50
2013,05,04,02,17,9.50
2013,05,04,02,18,9.50
2013,05,04,02,19,9.50
2013,05,04,02,20,9.50
2013,05,04,02,21,9.50
2013,05,04,02,22,9.50
2013,05,04,02,23,9.50
2013,05,04,02,24,9.40
2013,05,04,02,25,9.40
2013,05,04,02,26,9.30
2013,05,04,02,27,9.30
2013,05,04,02,28,9.20
2013,05,04,02,29,9.10
2013,05,04,02,30,9.10
2013,05,04,02,31,9.00
2013,05,04,02,32,9.00
2013,05,04,02,33,9.00
2013,05,04,02,34,8.90
2013,05,04,02,35,8.90
2013,05,04,02,36,8.90
2013,05,04,02,37,8.90
2013,05,04,02,38,8.90
2013,05,04,02,39,8.90
2013,05,04,02,40,8.90
2013,05,04,02,41,8.90
2013,05,04,02,42,9.00
2013,05,04,02,43,9.00
2013,05,04,02,44,9.10
2013,05,04,02,45,9.10
2013,05,04,02,46,9.10
2013,05,04,02,47,9.20
2013,05,04,02,48,9.20
2013,05,04,02,49,9.20
2013,05,04,02,50,9.20
2013,05,04,02,51,9.20
2013,05,04,02,52,9.20
2013,05,04,02,53,9.20
2013,05,04,02,54,9.20
2013,05,04,02,55,9.20
2013,05,04,02,56,9.10
2013,05,04,02,57,9.00
2013,05,04,02,58,8.90
2013,05,04,02,59,8.90
2013,05,04,03,00,8.80
2013,05,04,03,01,8.70
2013,05,04,03,02,8.60
2013,05,04,03,03,8.60
2013,05,04,03,04,8.50
2013,05,04,03,05,8.50
2013,05,04,03,06,8.50
2013,05,04,03,07,8.40
2013,05,04,03,08,8.40
2013,05,04,03,09,8.40
2013,05,04,03,10,8.40
2013,05,04,03,11,8.30
2013,05,04,03,12,8.30
2013,05,04,03,13,8.30
2013,05,04,03,14,8.30
2013,05,04,03,15,8.30
2013,05,04,03,16,8.20
2013,05,04,03,17,8.20
2013,05,04,03,18,8.20
2013,05,04,03,19,8.20
2013,05,04,03,20,8.20
2013,05,04,03,21,8.20
2013,05,04,03,22,8.20
2013,05,04,03,23,8.20
2013,05,04,03,24,8.20
2013,05,04,03,25,8.20
2013,05,04,03,26,8.20
2013,05,04,03,27,8.20
2013,05,04,03,28,8.20
2013,05,04,03,29,8.20
2013,05,04,03,30,8.20
2013,05,04,03,31,8.20
2013,05,04,03,32,8.20
2013,05,04,03,33,8.20
2013,05,04,03,34,8.20
2013,05,04,03,35,8.20
2013,05,04,03,36,8.20
2013,05,04,03,37,8.20
2013,05,04,03,38,8.20
2013,05,04,03,39,8.10
2013,05,04,03,40,8.10
2013,05,04,03,41,8.20
2013,05,04,03,42,8.20
2013,05,04,03,43,8.20
2013,05,04,03,44,8.20
2013,05,04,03,45,8.20
2013,05,04,03,46,8.20
2013,05,04,03,47,8.10
2013,05,04,03,48,8.10
2013,05,04,03,49,8.00
2013,05,04,03,50,8.00
2013,05,04,03,51,7.90
2013,05,04,03,52,7.90
2013,05,04,03,53,8.00
2013,05,04,03,54,8.00
2013,05,04,03,55,8.10
2013,05,04,03,56,8.10
2013,05,04,03,57,8.10
2013,05,04,03,58,8.20
2013,05,04,03,59,8.20
2013,05,04,04,00,8.20
2013,05,04,04,01,8.20
2013,05,04,04,02,8.20
2013,05,04,04,03,8.20
2013,05,04,04,04,8.20
2013,05,04,04,05,8.30
2013,05,04,04,06,8.30
2013,05,04,04,07,8.30
2013,05,04,04,08,8.40
2013,05,04,04,09,8.40
2013,05,04,04,10,8.50
2013,05,04,04,11,8.50
2013,05,04,04,12,8.50
2013,05,04,04,13,8.60
2013,05,04,04,14,8.60
2013,05,04,04,15,8.60
2013,05,04,04,16,8.60
2013,05,04,04,17,8.70
2013,05,04,04,18,8.80
2013,05,04,04,19,9.00
2013,05,04,04,20,9.10
2013,05,04,04,21,9.30
2013,05,04,04,22,9.50
2013,05,04,04,23,9.70
2013,05,04,04,24,9.80
2013,05,04,04,25,9.90
2013,05,04,04,26,9.90
2013,05,04,04,27,10.10
2013,05,04,04,28,10.10
2013,05,04,04,29,10.10
2013,05,04,04,30,10.20
2013,05,04,04,31,10.30
2013,05,04,04,32,10.40
2013,05,04,04,33,10.40
2013,05,04,04,34,10.50
2013,05,04,04,35,10.60
2013,05,04,04,36,10.60
2013,05,04,04,37,10.60
2013,05,04,04,38,10.60
2013,05,04,04,39,10.60
2013,05,04,04,40,10.60
2013,05,04,04,41,10.70
2013,05,04,04,42,10.70
2013,05,04,04,43,10.70
2013,05,04,04,44,10.80
2013,05,04,04,45,10.80
2013,05,04,04,46,10.80
2013,05,04,04,47,10.90
2013,05,04,04,48,10.90
2013,05,04,04,49,10.90
2013,05,04,04,50,10.90
2013,05,04,04,51,10.90
2013,05,04,04,52,10.90
2013,05,04,04,53,10.90
2013,05,04,04,54,10.90
2013,05,04,04,55,10.80
2013,05,04,04,56,10.80
2013,05,04,04,57,10.70
2013,05,04,04,58,10.50
2013,05,04,04,59,10.40
2013,05,04,05,00,10.40
2013,05,04,05,01,10.30
2013,05,04,05,02,10.30
2013,05,04,05,03,10.30
2013,05,04,05,04,10.30
2013,05,04,05,05,10.30
2013,05,04,05,06,10.30
2013,05,04,05,07,10.20
2013,05,04,05,08,10.20
2013,05,04,05,09,10.20
2013,05,04,05,10,10.10
2013,05,04,05,11,10.10
2013,05,04,05,12,10.10
2013,05,04,05,13,10.10
2013,05,04,05,14,10.10
2013,05,04,05,15,10.10
2013,05,04,05,16,10.10
2013,05,04,05,17,10.10
2013,05,04,05,18,10.10
2013,05,04,05,19,10.10
2013,05,04,05,20,10.20
2013,05,04,05,21,10.20
2013,05,04,05,22,10.40
2013,05,04,05,23,10.40
2013,05,04,05,24,10.50
2013,05,04,05,25,10.60
2013,05,04,05,26,10.60
2013,05,04,05,27,10.70
2013,05,04,05,28,10.70
2013,05,04,05,29,10.70
2013,05,04,05,30,10.70
2013,05,04,05,31,10.70
2013,05,04,05,32,10.80
2013,05,04,05,33,10.80
2013,05,04,05,34,10.80
2013,05,04,05,35,10.80
2013,05,04,05,36,10.80
2013,05,04,05,37,10.80
2013,05,04,05,38,10.70
2013,05,04,05,39,10.60
2013,05,04,05,40,10.60
2013,05,04,05,41,10.40
2013,05,04,05,42,10.30
2013,05,04,05,43,10.20
2013,05,04,05,44,10.00
2013,05,04,05,45,9.90
2013,05,04,05,46,9.80
2013,05,04,05,47,9.70
2013,05,04,05,48,9.70
2013,05,04,05,49,9.70
2013,05,04,05,50,9.70
2013,05,04,05,51,9.70
2013,05,04,05,52,9.70
2013,05,04,05,53,9.70
2013,05,04,05,54,9.80
2013,05,04,05,55,9.80
2013,05,04,05,56,9.70
2013,05,04,05,57,9.60
2013,05,04,05,58,9.50
2013,05,04,05,59,9.40
2013,05,04,06,00,9.30
2013,05,04,06,01,9.30
2013,05,04,06,02,9.30
2013,05,04,06,03,9.30
2013,05,04,06,04,9.30
2013,05,04,06,05,9.30
2013,05,04,06,06,9.40
2013,05,04,06,07,9.40
2013,05,04,06,08,9.40
2013,05,04,06,09,9.30
2013,05,04,06,10,9.10
2013,05,04,06,11,8.90
2013,05,04,06,12,8.80
2013,05,04,06,13,8.70
2013,05,04,06,14,8.70
2013,05,04,06,15,8.70
2013,05,04,06,16,8.70
2013,05,04,06,17,8.70
2013,05,04,06,18,8.60
2013,05,04,06,19,8.50
2013,05,04,06,20,8.40
2013,05,04,06,21,8.30
2013,05,04,06,22,8.20
2013,05,04,06,23,8.20
2013,05,04,06,24,8.20
2013,05,04,06,25,8.20
2013,05,04,06,26,8.30
2013,05,04,06,27,8.30
2013,05,04,06,28,8.40
2013,05,04,06,29,8.50
2013,05,04,06,30,8.50
2013,05,04,06,31,8.50
2013,05,04,06,32,8.60
2013,05,04,06,33,8.70
2013,05,04,06,34,8.80
2013,05,04,06,35,9.00
2013,05,04,06,36,9.10
2013,05,04,06,37,9.30
2013,05,04,06,38,9.40
2013,05,04,06,39,9.60
2013,05,04,06,40,9.70
2013,05,04,06,41,9.90
2013,05,04,06,42,10.10
2013,05,04,06,43,10.30
2013,05,04,06,44,10.50
2013,05,04,06,45,10.60
2013,05,04,06,46,10.80
2013,05,04,06,47,11.00
2013,05,04,06,48,11.10
2013,05,04,06,49,11.20
2013,05,04,06,50,11.40
2013,05,04,06,51,11.50
2013,05,04,06,52,11.60
2013,05,04,06,53,11.60
2013,05,04,06,54,11.70
2013,05,04,06,55,11.70
2013,05,04,06,56,11.80
2013,05,04,06,57,11.80
2013,05,04,06,58,11.80
2013,05,04,06,59,11.80
2013,05,04,07,00,11.90
2013,05,04,07,01,12.00
2013,05,04,07,02,12.00
2013,05,04,07,03,12.10
2013,05,04,07,04,12.20
2013,05,04,07,05,12.30
2013,05,04,07,06,12.30
2013,05,04,07,07,12.40
2013,05,04,07,08,12.50
2013,05,04,07,09,12.50
2013,05,04,07,10,12.60
2013,05,04,07,11,12.60
2013,05,04,07,12,12.70
2013,05,04,07,13,12.70
2013,05,04,07,14,12.70
2013,05,04,07,15,12.70
2013,05,04,07,16,12.70
2013,05,04,07,17,12.70
2013,05,04,07,18,12.70
2013,05,04,07,19,12.80
2013,05,04,07,20,12.80
2013,05,04,07,21,12.80
2013,05,04,07,22,12.80
2013,05,04,07,23,12.90
2013,05,04,07,24,13.00
2013,05,04,07,25,13.00
2013,05,04,07,26,13.10
2013,05,04,07,27,13.10
2013,05,04,07,28,13.20
2013,05,04,07,29,13.30
2013,05,04,07,30,13.30
2013,05,04,07,31,13.40
2013,05,04,07,32,13.40
2013,05,04,07,33,13.50
2013,05,04,07,34,13.60
2013,05,04,07,35,13.60
2013,05,04,07,36,13.70
2013,05,04,07,37,13.70
2013,05,04,07,38,13.70
2013,05,04,07,39,13.80
2013,05,04,07,40,13.80
2013,05,04,07,41,13.80
2013,05,04,07,42,13.80
2013,05,04,07,43,13.90
2013,05,04,07,44,13.90
2013,05,04,07,45,13.90
2013,05,04,07,46,13.90
2013,05,04,07,47,14.00
2013,05,04,07,48,14.00
2013,05,04,07,49,14.00
2013,05,04,07,50,14.10
2013,05,04,07,51,14.10
2013,05,04,07,52,14.20
2013,05,04,07,53,14.20
2013,05,04,07,54,14.20
2013,05,04,07,55,14.20
2013,05,04,07,56,14.20
2013,05,04,07,57,14.20
2013,05,04,07,58,14.30
2013,05,04,07,59,14.30
2013,05,04,08,00,14.30
2013,05,04,08,01,14.30
2013,05,04,08,02,14.30
2013,05,04,08,03,14.30
2013,05,04,08,04,14.30
2013,05,04,08,05,14.30
2013,05,04,08,06,14.30
2013,05,04,08,07,14.30
2013,05,04,08,08,14.30
2013,05,04,08,09,14.20
2013,05,04,08,10,14.20
2013,05,04,08,11,14.20
2013,05,04,08,12,14.20
2013,05,04,08,13,14.20
2013,05,04,08,14,14.20
2013,05,04,08,15,14.20
2013,05,04,08,16,14.20
2013,05,04,08,17,14.10
2013,05,04,08,18,14.00
2013,05,04,08,19,13.90
2013,05,04,08,20,13.90
2013,05,04,08,21,14.00
2013,05,04,08,22,14.00
2013,05,04,08,23,14.00
2013,05,04,08,24,14.10
2013,05,04,08,25,14.10
2013,05,04,08,26,14.10
2013,05,04,08,27,14.20
2013,05,04,08,28,14.20
2013,05,04,08,29,14.30
2013,05,04,08,30,14.40
2013,05,04,08,31,14.50
2013,05,04,08,32,14.60
2013,05,04,08,33,14.60
2013,05,04,08,34,14.60
2013,05,04,08,35,14.70
2013,05,04,08,36,14.70
2013,05,04,08,37,14.80
2013,05,04,08,38,14.80
2013,05,04,08,39,14.80
2013,05,04,08,40,14.80
2013,05,04,08,41,14.80
2013,05,04,08,42,14.80
2013,05,04,08,43,14.90
2013,05,04,08,44,14.90
2013,05,04,08,45,15.00
2013,05,04,08,46,15.00
2013,05,04,08,47,15.10
2013,05,04,08,48,15.20
2013,05,04,08,49,15.30
2013,05,04,08,50,15.40
2013,05,04,08,51,15.50
2013,05,04,08,52,15.60
2013,05,04,08,53,15.60
2013,05,04,08,54,15.70
2013,05,04,08,55,15.70
2013,05,04,08,56,15.70
2013,05,04,08,57,15.80
2013,05,04,08,58,15.80
2013,05,04,08,59,15.90
2013,05,04,09,00,15.90
2013,05,04,09,01,15.80
2013,05,04,09,02,15.70
2013,05,04,09,03,15.50
2013,05,04,09,04,15.30
2013,05,04,09,05,15.20
2013,05,04,09,06,15.10
2013,05,04,09,07,15.00
2013,05,04,09,08,14.90
2013,05,04,09,09,14.90
2013,05,04,09,10,14.90
2013,05,04,09,11,14.90
2013,05,04,09,12,15.00
2013,05,04,09,13,15.00
2013,05,04,09,14,15.00
2013,05,04,09,15,14.90
2013,05,04,09,16,14.90
2013,05,04,09,17,14.80
2013,05,04,09,18,14.80
2013,05,04,09,19,14.80
2013,05,04,09,20,14.80
2013,05,04,09,21,14.90
2013,05,04,09,22,15.00
2013,05,04,09,23,15.10
2013,05,04,09,24,15.30
2013,05,04,09,25,15.50
2013,05,04,09,26,15.60
2013,05,04,09,27,15.80
2013,05,04,09,28,16.00
2013,05,04,09,29,16.10
2013,05,04,09,30,16.30
2013,05,04,09,31,16.40
2013,05,04,09,32,16.40
2013,05,04,09,33,16.40
2013,05,04,09,34,16.40
2013,05,04,09,35,16.40
2013,05,04,09,36,16.50
2013,05,04,09,37,16.70
2013,05,04,09,38,16.70
2013,05,04,09,39,16.70
2013,05,04,09,40,16.70
2013,05,04,09,41,16.60
2013,05,04,09,42,16.60
2013,05,04,09,43,16.60
2013,05,04,09,44,16.50
2013,05,04,09,45,16.40
2013,05,04,09,46,16.40
2013,05,04,09,47,16.30
2013,05,04,09,48,16.30
2013,05,04,09,49,16.30
2013,05,04,09,50,16.30
2013,05,04,09,51,16.40
2013,05,04,09,52,16.40
2013,05,04,09,53,16.40
2013,05,04,09,54,16.40
2013,05,04,09,55,16.40
2013,05,04,09,56,16.40
2013,05,04,09,57,16.30
2013,05,04,09,58,16.30
2013,05,04,09,59,16.40
2013,05,04,10,00,16.40
2013,05,04,10,01,16.40
2013,05,04,10,02,16.60
2013,05,04,10,03,16.60
2013,05,04,10,04,16.70
2013,05,04,10,05,16.60
2013,05,04,10,06,16.40
2013,05,04,10,07,16.40
2013,05,04,10,08,16.40
2013,05,04,10,09,16.30
2013,05,04,10,10,16.20
2013,05,04,10,11,16.20
2013,05,04,10,12,16.20
2013,05,04,10,13,16.20
2013,05,04,10,14,16.20
2013,05,04,10,15,16.20
2013,05,04,10,16,16.20
2013,05,04,10,17,16.20
2013,05,04,10,18,16.30
2013,05,04,10,19,16.30
2013,05,04,10,20,16.20
2013,05,04,10,21,16.10
2013,05,04,10,22,16.10
2013,05,04,10,23,16.20
2013,05,04,10,24,16.10
2013,05,04,10,25,16.00
2013,05,04,10,26,15.90
2013,05,04,10,27,15.90
2013,05,04,10,28,15.80
2013,05,04,10,29,15.90
2013,05,04,10,30,16.00
2013,05,04,10,31,16.00
2013,05,04,10,32,15.90
2013,05,04,10,33,15.90
2013,05,04,10,34,15.90
2013,05,04,10,35,16.00
2013,05,04,10,36,16.10
2013,05,04,10,37,16.10
2013,05,04,10,38,16.20
2013,05,04,10,39,16.30
2013,05,04,10,40,16.30
2013,05,04,10,41,16.30
2013,05,04,10,42,16.30
2013,05,04,10,43,16.30
2013,05,04,10,44,16.30
2013,05,04,10,45,16.40
2013,05,04,10,46,16.50
2013,05,04,10,47,16.60
2013,05,04,10,48,16.60
2013,05,04,10,49,16.60
2013,05,04,10,50,16.60
2013,05,04,10,51,16.60
2013,05,04,10,52,16.60
2013,05,04,10,53,16.60
2013,05,04,10,54,16.60
2013,05,04,10,55,16.70
2013,05,04,10,56,16.80
2013,05,04,10,57,17.00
2013,05,04,10,58,17.00
2013,05,04,10,59,17.10
2013,05,04,11,00,17.20
2013,05,04,11,01,17.20
2013,05,04,11,02,17.20
2013,05,04,11,03,17.30
2013,05,04,11,04,17.30
2013,05,04,11,05,17.30
2013,05,04,11,06,17.30
2013,05,04,11,07,17.40
2013,05,04,11,08,17.50
2013,05,04,11,09,17.50
2013,05,04,11,10,17.50
2013,05,04,11,11,17.50
2013,05,04,11,12,17.60
2013,05,04,11,13,17.70
2013,05,04,11,14,17.60
2013,05,04,11,15,17.70
2013,05,04,11,16,17.70
2013,05,04,11,17,17.80
2013,05,04,11,18,17.70
2013,05,04,11,19,17.80
2013,05,04,11,20,17.90
2013,05,04,11,21,17.90
2013,05,04,11,22,17.90
2013,05,04,11,23,17.90
2013,05,04,11,24,17.90
2013,05,04,11,25,17.90
2013,05,04,11,26,17.90
2013,05,04,11,27,17.90
2013,05,04,11,28,18.00
2013,05,04,11,29,18.20
2013,05,04,11,30,18.20
2013,05,04,11,31,18.30
2013,05,04,11,32,18.40
2013,05,04,11,33,18.50
2013,05,04,11,34,18.60
2013,05,04,11,35,18.60
2013,05,04,11,36,18.60
2013,05,04,11,37,18.50
2013,05,04,11,38,18.50
2013,05,04,11,39,18.50
2013,05,04,11,40,18.50
2013,05,04,11,41,18.60
2013,05,04,11,42,18.70
2013,05,04,11,43,18.70
2013,05,04,11,44,18.80
2013,05,04,11,45,18.80
2013,05,04,11,46,18.80
2013,05,04,11,47,18.70
2013,05,04,11,48,18.80
2013,05,04,11,49,18.90
2013,05,04,11,50,19.00
2013,05,04,11,51,19.10
2013,05,04,11,52,19.10
2013,05,04,11,53,19.20
2013,05,04,11,54,19.20
2013,05,04,11,55,19.30
2013,05,04,11,56,19.10
2013,05,04,11,57,19.10
2013,05,04,11,58,19.30
2013,05,04,11,59,19.40
2013,05,04,12,00,19.50
2013,05,04,12,01,19.50
2013,05,04,12,02,19.70
2013,05,04,12,03,19.80
2013,05,04,12,04,19.90
2013,05,04,12,05,20.10
2013,05,04,12,06,20.20
2013,05,04,12,07,20.10
2013,05,04,12,08,19.80
2013,05,04,12,09,19.50
2013,05,04,12,10,19.10
2013,05,04,12,11,19.00
2013,05,04,12,12,18.90
2013,05,04,12,13,19.10
2013,05,04,12,14,19.00
2013,05,04,12,15,18.90
2013,05,04,12,16,18.70
2013,05,04,12,17,18.60
2013,05,04,12,18,18.60
2013,05,04,12,19,18.70
2013,05,04,12,20,18.70
2013,05,04,12,21,18.60
2013,05,04,12,22,18.50
2013,05,04,12,23,18.50
2013,05,04,12,24,18.50
2013,05,04,12,25,18.50
2013,05,04,12,26,18.40
2013,05,04,12,27,18.30
2013,05,04,12,28,18.40
2013,05,04,12,29,18.50
2013,05,04,12,30,18.60
2013,05,04,12,31,18.60
2013,05,04,12,32,18.60
2013,05,04,12,33,18.70
2013,05,04,12,34,18.80
2013,05,04,12,35,18.80
2013,05,04,12,36,18.80
2013,05,04,12,37,18.90
2013,05,04,12,38,18.90
2013,05,04,12,39,19.00
2013,05,04,12,40,19.10
2013,05,04,12,41,19.00
2013,05,04,12,42,19.00
2013,05,04,12,43,19.10
2013,05,04,12,44,19.10
2013,05,04,12,45,19.30
2013,05,04,12,46,20.00
2013,05,04,12,47,20.80
2013,05,04,12,48,21.40
2013,05,04,12,49,21.90
2013,05,04,12,50,22.40
2013,05,04,12,51,22.60
2013,05,04,12,52,22.90
2013,05,04,12,53,23.20
2013,05,04,12,54,23.30
2013,05,04,12,55,23.40
2013,05,04,12,56,23.40
2013,05,04,12,57,23.40
2013,05,04,12,58,23.50
2013,05,04,12,59,23.60
2013,05,04,13,00,23.70
2013,05,04,13,01,23.70
2013,05,04,13,02,23.80
2013,05,04,13,03,23.70
2013,05,04,13,04,22.80
2013,05,04,13,05,21.80
2013,05,04,13,06,20.80
2013,05,04,13,07,20.00
2013,05,04,13,08,19.10
2013,05,04,13,09,18.30
2013,05,04,13,10,17.70
2013,05,04,13,11,17.30
2013,05,04,13,12,17.30
2013,05,04,13,13,17.70
2013,05,04,13,14,17.80
2013,05,04,13,15,17.80
2013,05,04,13,16,17.80
2013,05,04,13,17,17.50
2013,05,04,13,18,17.20
2013,05,04,13,19,16.80
2013,05,04,13,20,16.50
2013,05,04,13,21,16.40
2013,05,04,13,22,16.40
2013,05,04,13,23,16.30
2013,05,04,13,24,16.20
2013,05,04,13,25,16.10
2013,05,04,13,26,16.10
2013,05,04,13,27,16.00
2013,05,04,13,28,15.90
2013,05,04,13,29,15.80
2013,05,04,13,30,15.70
2013,05,04,13,31,15.40
2013,05,04,13,32,15.30
2013,05,04,13,33,15.40
2013,05,04,13,34,15.40
2013,05,04,13,35,15.50
2013,05,04,13,36,15.50
2013,05,04,13,37,15.40
2013,05,04,13,38,15.50
2013,05,04,13,39,15.60
2013,05,04,13,40,15.50
2013,05,04,13,41,15.60
2013,05,04,13,42,15.60
2013,05,04,13,43,15.50
2013,05,04,13,44,15.50
2013,05,04,13,45,15.50
2013,05,04,13,46,15.70
2013,05,04,13,47,15.80
2013,05,04,13,48,15.80
2013,05,04,13,49,15.80
2013,05,04,13,50,15.80
2013,05,04,13,51,15.80
2013,05,04,13,52,15.60
2013,05,04,13,53,15.50
2013,05,04,13,54,15.40
2013,05,04,13,55,15.30
2013,05,04,13,56,15.20
2013,05,04,13,57,15.20
2013,05,04,13,58,15.30
2013,05,04,13,59,15.40
2013,05,04,14,00,15.40
2013,05,04,14,01,15.40
2013,05,04,14,02,15.40
2013,05,04,14,03,15.40
2013,05,04,14,04,15.40
2013,05,04,14,05,15.30
2013,05,04,14,06,15.40
2013,05,04,14,07,15.50
2013,05,04,14,08,15.40
2013,05,04,14,09,15.50
2013,05,04,14,10,15.60
2013,05,04,14,11,15.80
2013,05,04,14,12,15.90
2013,05,04,14,13,16.00
2013,05,04,14,14,16.00
2013,05,04,14,15,15.70
2013,05,04,14,16,15.60
2013,05,04,14,17,15.60
2013,05,04,14,18,15.70
2013,05,04,14,19,15.70
2013,05,04,14,20,15.90
2013,05,04,14,21,16.10
2013,05,04,14,22,16.20
2013,05,04,14,23,16.20
2013,05,04,14,24,16.20
2013,05,04,14,25,16.10
2013,05,04,14,26,16.00
2013,05,04,14,27,15.90
2013,05,04,14,28,15.80
2013,05,04,14,29,15.80
2013,05,04,14,30,15.80
2013,05,04,14,31,15.80
2013,05,04,14,32,16.00
2013,05,04,14,33,16.10
2013,05,04,14,34,16.20
2013,05,04,14,35,16.20
2013,05,04,14,36,16.30
2013,05,04,14,37,16.40
2013,05,04,14,38,16.50
2013,05,04,14,39,16.60
2013,05,04,14,40,16.70
2013,05,04,14,41,16.80
2013,05,04,14,42,16.90
2013,05,04,14,43,17.00
2013,05,04,14,44,17.10
2013,05,04,14,45,17.10
2013,05,04,14,46,17.10
2013,05,04,14,47,17.20
2013,05,04,14,48,17.20
2013,05,04,14,49,17.40
2013,05,04,14,50,17.50
2013,05,04,14,51,17.60
2013,05,04,14,52,17.60
2013,05,04,14,53,17.80
2013,05,04,14,54,17.80
2013,05,04,14,55,17.80
2013,05,04,14,56,17.80
2013,05,04,14,57,17.70
2013,05,04,14,58,17.60
2013,05,04,14,59,17.70
2013,05,04,15,00,17.70
2013,05,04,15,01,17.80
2013,05,04,15,02,17.90
2013,05,04,15,03,18.10
2013,05,04,15,04,18.20
2013,05,04,15,05,18.50
2013,05,04,15,06,18.60
2013,05,04,15,07,18.90
2013,05,04,15,08,19.00
2013,05,04,15,09,19.10
2013,05,04,15,10,19.20
2013,05,04,15,11,19.40
2013,05,04,15,12,19.40
2013,05,04,15,13,19.50
2013,05,04,15,14,19.50
2013,05,04,15,15,19.40
2013,05,04,15,16,19.20
2013,05,04,15,17,19.10
2013,05,04,15,18,19.10
2013,05,04,15,19,19.00
2013,05,04,15,20,18.90
2013,05,04,15,21,18.90
2013,05,04,15,22,18.90
2013,05,04,15,23,18.90
2013,05,04,15,24,18.90
2013,05,04,15,25,18.80
2013,05,04,15,26,18.80
2013,05,04,15,27,18.90
2013,05,04,15,28,19.10
2013,05,04,15,29,19.20
2013,05,04,15,30,19.40
2013,05,04,15,31,19.50
2013,05,04,15,32,19.70
2013,05,04,15,33,19.90
2013,05,04,15,34,20.00
2013,05,04,15,35,20.10
2013,05,04,15,36,20.20
2013,05,04,15,37,20.20
2013,05,04,15,38,20.40
2013,05,04,15,39,20.50
2013,05,04,15,40,20.60
2013,05,04,15,41,20.70
2013,05,04,15,42,20.60
2013,05,04,15,43,20.50
2013,05,04,15,44,20.50
2013,05,04,15,45,20.50
2013,05,04,15,46,20.50
2013,05,04,15,47,20.30
2013,05,04,15,48,20.20
2013,05,04,15,49,20.10
2013,05,04,15,50,20.20
2013,05,04,15,51,20.20
2013,05,04,15,52,20.20
2013,05,04,15,53,20.30
2013,05,04,15,54,20.20
2013,05,04,15,55,20.10
2013,05,04,15,56,20.00
2013,05,04,15,57,19.90
2013,05,04,15,58,19.70
2013,05,04,15,59,19.50
2013,05,04,16,00,19.30
2013,05,04,16,01,19.10
2013,05,04,16,02,19.00
2013,05,04,16,03,18.90
2013,05,04,16,04,18.80
2013,05,04,16,05,18.80
2013,05,04,16,06,18.60
2013,05,04,16,07,18.60
2013,05,04,16,08,18.50
2013,05,04,16,09,18.50
2013,05,04,16,10,18.40
2013,05,04,16,11,18.40
2013,05,04,16,12,18.40
2013,05,04,16,13,18.40
2013,05,04,16,14,18.40
2013,05,04,16,15,18.40
2013,05,04,16,16,18.30
2013,05,04,16,17,18.20
2013,05,04,16,18,18.00
2013,05,04,16,19,17.90
2013,05,04,16,20,17.70
2013,05,04,16,21,17.50
2013,05,04,16,22,17.30
2013,05,04,16,23,17.30
2013,05,04,16,24,17.20
2013,05,04,16,25,17.10
2013,05,04,16,26,17.10
2013,05,04,16,27,17.00
2013,05,04,16,28,16.90
2013,05,04,16,29,16.90
2013,05,04,16,30,16.90
2013,05,04,16,31,16.80
2013,05,04,16,32,16.80
2013,05,04,16,33,16.90
2013,05,04,16,34,17.00
2013,05,04,16,35,17.10
2013,05,04,16,36,17.20
2013,05,04,16,37,17.30
2013,05,04,16,38,17.40
2013,05,04,16,39,17.50
2013,05,04,16,40,17.50
2013,05,04,16,41,17.60
2013,05,04,16,42,17.50
2013,05,04,16,43,17.50
2013,05,04,16,44,17.50
2013,05,04,16,45,17.60
2013,05,04,16,46,17.70
2013,05,04,16,47,17.80
2013,05,04,16,48,17.80
2013,05,04,16,49,17.80
2013,05,04,16,50,17.80
2013,05,04,16,51,17.80
2013,05,04,16,52,17.90
2013,05,04,16,53,18.00
2013,05,04,16,54,18.10
2013,05,04,16,55,18.10
2013,05,04,16,56,18.20
2013,05,04,16,57,18.20
2013,05,04,16,58,18.20
2013,05,04,16,59,18.20
2013,05,04,17,00,18.20
2013,05,04,17,01,18.20
2013,05,04,17,02,18.20
2013,05,04,17,03,18.10
2013,05,04,17,04,18.10
2013,05,04,17,05,18.00
2013,05,04,17,06,18.00
2013,05,04,17,07,18.10
2013,05,04,17,08,18.10
2013,05,04,17,09,18.00
2013,05,04,17,10,17.90
2013,05,04,17,11,17.90
2013,05,04,17,12,17.80
2013,05,04,17,13,17.80
2013,05,04,17,14,17.90
2013,05,04,17,15,17.90
2013,05,04,17,16,18.00
2013,05,04,17,17,18.20
2013,05,04,17,18,18.10
2013,05,04,17,19,18.00
2013,05,04,17,20,18.00
2013,05,04,17,21,18.10
2013,05,04,17,22,18.20
2013,05,04,17,23,18.30
2013,05,04,17,24,18.30
2013,05,04,17,25,18.20
2013,05,04,17,26,18.20
2013,05,04,17,27,18.30
2013,05,04,17,28,18.40
2013,05,04,17,29,18.50
2013,05,04,17,30,18.50
2013,05,04,17,31,18.60
2013,05,04,17,32,18.70
2013,05,04,17,33,18.80